TimeEST,TemperatureF,Dew PointF,Humidity,Sea Level PressureIn,VisibilityMPH,Wind Direction,Wind SpeedMPH,Gust SpeedMPH,PrecipitationIn,Events,Conditions,WindDirDegrees,DateUTC
12:35 AM,64.4,64.4,100,30.07,10.0,NNW,4.6,-,N/A,,Clear,340,2013-02-09 05:35:00
12:55 AM,66.2,64.4,94,30.07,10.0,NNW,4.6,-,N/A,,Clear,340,2013-02-09 05:55:00
1:15 AM,66.2,64.4,94,30.07,10.0,NNW,4.6,-,N/A,,Clear,340,2013-02-09 06:15:00
1:35 AM,64.4,64.4,100,30.07,10.0,NNW,4.6,-,N/A,,Clear,340,2013-02-09 06:35:00
1:55 AM,64.4,62.6,94,30.07,10.0,NNW,3.5,-,N/A,,Clear,330,2013-02-09 06:55:00
2:15 AM,64.4,62.6,94,30.07,10.0,NNW,4.6,-,N/A,,Clear,330,2013-02-09 07:15:00
2:35 AM,64.4,62.6,94,30.06,10.0,NNW,4.6,-,N/A,,Clear,330,2013-02-09 07:35:00
2:55 AM,64.4,62.6,94,30.06,10.0,NNW,5.8,-,N/A,,Scattered Clouds,340,2013-02-09 07:55:00
3:15 AM,66.2,64.4,94,30.07,10.0,NNW,3.5,-,N/A,,Scattered Clouds,340,2013-02-09 08:15:00
3:35 AM,64.4,62.6,94,30.06,10.0,NNW,4.6,-,N/A,,Clear,340,2013-02-09 08:35:00
3:55 AM,64.4,62.6,94,30.06,10.0,NNW,3.5,-,N/A,,Clear,340,2013-02-09 08:55:00
4:15 AM,64.4,62.6,94,30.06,10.0,NNW,4.6,-,N/A,,Clear,330,2013-02-09 09:15:00
4:35 AM,64.4,62.6,94,30.06,10.0,NNW,4.6,-,N/A,,Clear,330,2013-02-09 09:35:00
4:55 AM,64.4,62.6,94,30.07,10.0,NNW,4.6,-,N/A,,Clear,340,2013-02-09 09:55:00
5:15 AM,62.6,62.6,100,30.07,10.0,NW,3.5,-,N/A,,Clear,320,2013-02-09 10:15:00
6:47 AM,62.6,62.6,100,30.11,7.0,NNW,3.5,-,N/A,,Partly Cloudy,330,2013-02-09 11:47:00
7:47 AM,62.6,60.8,94,30.13,7.0,NNW,6.9,-,N/A,,Partly Cloudy,330,2013-02-09 12:47:00
8:47 AM,68.0,60.8,78,30.14,7.0,North,-9999.0,-,N/A,,Partly Cloudy,0,2013-02-09 13:47:00
9:47 AM,71.6,62.6,73,30.16,7.0,NNE,13.8,17.3,N/A,,Scattered Clouds,30,2013-02-09 14:47:00
10:47 AM,73.4,62.6,69,30.18,7.0,NNE,13.8,19.6,N/A,,Scattered Clouds,30,2013-02-09 15:47:00
11:47 AM,75.2,60.8,61,30.18,10.0,NNE,13.8,19.6,N/A,,Scattered Clouds,30,2013-02-09 16:47:00
12:47 PM,75.2,59.0,57,30.17,10.0,NNE,12.7,19.6,N/A,,Scattered Clouds,30,2013-02-09 17:47:00
1:10 PM,75.2,59.0,57,30.16,10.0,NNW,13.8,20.7,N/A,,Scattered Clouds,340,2013-02-09 18:10:00
1:47 PM,75.2,59.0,57,30.15,10.0,North,10.4,17.3,N/A,,Mostly Cloudy,10,2013-02-09 18:47:00
2:47 PM,75.2,59.0,57,30.14,10.0,North,11.5,-,N/A,,Mostly Cloudy,10,2013-02-09 19:47:00
3:47 PM,75.2,59.0,57,30.14,10.0,North,11.5,-,N/A,,Scattered Clouds,10,2013-02-09 20:47:00
4:47 PM,75.2,57.2,53,30.15,10.0,North,11.5,-,N/A,,Scattered Clouds,10,2013-02-09 21:47:00
5:47 PM,73.4,57.2,57,30.15,7.0,NE,13.8,-,N/A,,Scattered Clouds,50,2013-02-09 22:47:00
6:47 PM,71.6,55.4,57,30.16,7.0,ENE,11.5,-,N/A,,Scattered Clouds,60,2013-02-09 23:47:00
7:15 PM,71.6,55.4,57,30.17,10.0,ENE,10.4,-,N/A,,Mostly Cloudy,60,2013-02-10 00:15:00
7:35 PM,69.8,55.4,60,30.17,10.0,ENE,11.5,-,N/A,,Scattered Clouds,60,2013-02-10 00:35:00
7:55 PM,71.6,55.4,57,30.18,10.0,ENE,12.7,-,N/A,,Scattered Clouds,60,2013-02-10 00:55:00
8:15 PM,69.8,55.4,60,30.18,10.0,ENE,15.0,18.4,N/A,,Scattered Clouds,70,2013-02-10 01:15:00
8:35 PM,71.6,55.4,57,30.18,10.0,ENE,10.4,16.1,N/A,,Scattered Clouds,70,2013-02-10 01:35:00
8:55 PM,69.8,55.4,60,30.19,10.0,ENE,9.2,16.1,N/A,,Scattered Clouds,70,2013-02-10 01:55:00
9:15 PM,69.8,55.4,60,30.19,10.0,East,8.1,-,N/A,,Scattered Clouds,80,2013-02-10 02:15:00
9:35 PM,69.8,55.4,60,30.20,10.0,East,10.4,-,N/A,,Scattered Clouds,90,2013-02-10 02:35:00
9:55 PM,69.8,55.4,60,30.20,10.0,East,10.4,-,N/A,,Scattered Clouds,80,2013-02-10 02:55:00
10:15 PM,69.8,53.6,56,30.20,10.0,East,9.2,-,N/A,,Scattered Clouds,80,2013-02-10 03:15:00
10:35 PM,69.8,53.6,56,30.20,10.0,East,10.4,-,N/A,,Clear,80,2013-02-10 03:35:00
10:55 PM,69.8,53.6,56,30.20,10.0,East,11.5,-,N/A,,Clear,80,2013-02-10 03:55:00
11:15 PM,69.8,53.6,56,30.20,10.0,East,9.2,-,N/A,,Clear,80,2013-02-10 04:15:00
11:35 PM,69.8,53.6,56,30.20,10.0,East,10.4,-,N/A,,Clear,90,2013-02-10 04:35:00
11:55 PM,69.8,55.4,60,30.20,10.0,East,10.4,-,N/A,,Mostly Cloudy,100,2013-02-10 04:55:00